"Timestamp","TZ","WindDir_Mean (deg)","WindSpd_Mean (km/h)","WindSpd_Min (km/h)","WindSpd_Max (km/h)","Temp_Mean (deg)","RH_Mean (%)","MSLP_Mean (hPa)","Rain_Acc (mm)","Rain_Intensity (mm/h)","Hail_Acc (hits/cm2)","Hail_Intensity (hits/cm2hr)","Solar_Mean (W/m2)"
2021/08/30 00:00:00.014,n,4,6.48,5.04,7.56,18.1,67.2,1015.62,0,0,0,0,0.028725
2021/08/30 00:01:00.000,n,44,2.52,1.44,4.32,18.1,67.2,1015.62,0,0,0,0,0.030441
2021/08/30 00:02:00.000,n,14,6.12,5.76,6.84,18.1,67.2,1015.62,0,0,0,0,0.029564
2021/08/30 00:03:00.000,n,12,7.56,7.2,7.92,18.1,67.2,1015.62,0,0,0,0,0.027847
2021/08/30 00:04:00.002,n,356,5.4,5.04,6.12,18.1,67.2,1015.62,0,0,0,0,0.027008
2021/08/30 00:05:00.000,n,346,3.6,3.24,3.6,18.1,67.2,1015.72,0,0,0,0,0.028725
2021/08/30 00:06:00.000,n,7,3.24,2.52,5.04,18.1,67.1,1015.72,0,0,0,0,0.031357
2021/08/30 00:07:00.010,n,327,3.6,2.52,4.32,18.1,67.2,1015.72,0,0,0,0,0.027008
2021/08/30 00:08:00.008,n,7,9.36,7.56,10.440002,18.1,67.2,1015.72,0,0,0,0,0.028725
2021/08/30 00:09:00.005,n,48,7.56,6.12,10.8,18.1,67.1,1015.72,0,0,0,0,0.029564
2021/08/30 00:10:00.001,n,29,6.12,5.04,7.2,18.1,67,1015.72,0,0,0,0,0.027008
2021/08/30 00:11:00.000,n,62,3.6,0.72,7.2,18.1,67,1015.72,0,0,0,0,0.028725
2021/08/30 00:12:00.000,n,18,4.32,3.6,4.68,18.1,66.800004,1015.72,0,0,0,0,0.028725
2021/08/30 00:13:00.000,n,5,6.48,5.76,6.84,18.1,66.800004,1015.72,0,0,0,0,0.024376
2021/08/30 00:14:00.007,n,22,6.12,4.32,6.84,18.2,66.800004,1015.72,0,0,0,0,0.027008
2021/08/30 00:15:00.004,n,349,5.04,4.32,5.4,18.2,66.800004,1015.82,0,0,0,0,0.029564
2021/08/30 00:16:00.001,n,16,5.76,5.4,6.12,18.2,66.800004,1015.82,0,0,0,0,0.028725
2021/08/30 00:17:00.000,n,342,6.84,4.68,7.92,18.2,66.9,1015.82,0,0,0,0,0.025215
2021/08/30 00:18:00.012,n,355,5.4,5.04,5.76,18.2,67.1,1015.82,0,0,0,0,0.021744
2021/08/30 00:19:00.000,n,358,6.12,5.76,6.84,18.2,66.9,1015.82,0,0,0,0,0.024376
2021/08/30 00:20:00.000,n,344,6.12,5.76,6.84,18.2,67,1015.72,0,0,0,0,0.028725
2021/08/30 00:21:00.005,n,8,2.88,2.52,3.24,18.2,66.800004,1015.72,0,0,0,0,0.026093
2021/08/30 00:22:00.002,n,30,5.4,5.04,5.76,18.2,66.800004,1015.82,0,0,0,0,0.024376
2021/08/30 00:23:00.000,n,31,3.6,2.52,5.76,18.1,66.9,1015.72,0,0,0,0,0.020866
2021/08/30 00:24:00.000,n,30,3.6,3.24,3.6,18.1,67.1,1015.82,0,0,0,0,0.024376
2021/08/30 00:25:00.009,n,350,2.16,1.8,3.24,18.1,66.9,1015.82,0,0,0,0,0.023499
2021/08/30 00:26:00.007,n,344,2.16,1.8,2.52,18.2,67.6,1015.82,0,0,0,0,0.022621
2021/08/30 00:27:00.004,n,355,1.8,0.72,2.88,18.2,67.2,1015.82,0,0,0,0,0.020027
2021/08/30 00:28:00.000,n,47,0.72,0.36,0.72,18.1,67.2,1015.82,0,0,0,0,0.021744
2021/08/30 00:29:00.000,n,105,2.52,2.52,2.88,18.1,67.2,1015.82,0,0,0,0,0.020866
2021/08/30 00:30:00.000,n,130,0.72,0.36,0.72,18.1,67.3,1015.82,0,0,0,0,0.020866
2021/08/30 00:31:00.000,n,169,1.8,0.72,2.16,18,67.4,1015.82,0,0,0,0,0.01915
2021/08/30 00:32:00.005,n,171,1.8,1.8,2.16,18,67.6,1015.82,0,0,0,0,0.020866
2021/08/30 00:33:00.002,n,107,2.88,2.88,2.88,18,67.6,1015.82,0,0,0,0,0.026093
2021/08/30 00:34:00.000,n,137,2.16,1.08,2.88,18,67.7,1015.82,0,0,0,0,0.021744
2021/08/30 00:35:00.013,n,135,3.96,3.6,4.32,17.9,67.8,1015.82,0,0,0,0,0.020866
2021/08/30 00:36:00.010,n,135,6.48,5.76,7.92,17.8,68.4,1015.82,0,0,0,0,0.017433
2021/08/30 00:37:00.000,n,141,3.24,1.08,5.4,17.7,69.1,1015.82,0,0,0,0,0.018272
2021/08/30 00:38:00.003,n,223,2.88,2.88,3.24,17.6,69.3,1015.92,0,0,0,0,0.017433
2021/08/30 00:39:00.000,n,137,5.76,5.4,6.48,17.6,69.8,1015.82,0,0,0,0,0.017433
2021/08/30 00:40:00.000,n,109,1.08,0.72,1.8,17.5,70.4,1015.92,0,0,0,0,0.018272
2021/08/30 00:41:00.000,n,141,3.96,3.6,3.96,17.4,71.1,1015.92,0,0,0,0,0.021744
2021/08/30 00:42:00.009,n,115,4.68,2.88,5.76,17.4,71.2,1015.92,0,0,0,0,0.018272
2021/08/30 00:43:00.007,n,133,4.68,4.32,5.4,17.4,71.1,1015.92,0,0,0,0,0.016518
2021/08/30 00:44:00.003,n,140,5.76,5.4,6.48,17.3,71.6,1015.92,0,0,0,0,0.014801
2021/08/30 00:45:00.002,n,138,6.48,5.76,7.2,17.3,72,1015.92,0,0,0,0,0.014801
2021/08/30 00:46:00.000,n,134,5.4,5.04,6.12,17.3,71.8,1016.02,0,0,0,0,0.025253
2021/08/30 00:47:00.000,n,130,4.68,4.32,5.04,17.3,71.8,1016.02,0,0,0,0,0.036545
2021/08/30 00:48:00.000,n,130,6.12,5.76,6.12,17.3,71.7,1016.02,0,0,0,0,0.031357
2021/08/30 00:49:00.005,n,131,6.48,5.76,6.48,17.4,71.2,1016.02,0,0,0,0,0.033073
2021/08/30 00:50:00.002,n,124,3.24,2.88,4.32,17.5,70.5,1016.02,0,0,0,0,0.033073
2021/08/30 00:51:00.000,n,156,0.36,0.36,0.72,17.6,70.1,1016.02,0,0,0,0,0.035706
2021/08/30 00:52:00.000,n,138,5.04,4.68,5.4,17.6,70.3,1016.02,0,0,0,0,0.029602
2021/08/30 00:53:00.011,n,132,4.68,4.32,4.68,17.6,70.5,1016.12,0,0,0,0,0.032196
2021/08/30 00:54:00.008,n,117,4.68,3.6,5.76,17.5,70.7,1016.12,0,0,0,0,0.030479
2021/08/30 00:55:00.000,n,105,5.76,5.76,6.12,17.5,70.6,1016.12,0,0,0,0,0.030479
2021/08/30 00:56:00.001,n,101,5.76,5.4,5.76,17.5,70.5,1016.12,0,0,0,0,0.035706
2021/08/30 00:57:00.000,n,81,2.52,1.44,3.96,17.5,70.5,1016.02,0,0,0,0,0.032196
2021/08/30 00:58:00.000,n,199,1.44,0.72,1.8,17.4,70.8,1016.12,0,0,0,0,0.033073
2021/08/30 00:59:00.000,n,214,2.16,1.8,2.52,17.4,70.9,1016.12,0,0,0,0,0.031357
2021/08/30 01:00:00.006,n,156,0.72,0.72,1.08,17.3,71,1016.12,0,0,0,0,0.028725
2021/08/30 01:01:00.003,n,122,2.16,1.8,2.52,17.3,71.3,1016.12,0,0,0,0,0.02697
2021/08/30 01:02:00.000,n,74,2.88,2.52,3.24,17.2,71.6,1016.02,0,0,0,0,0.026131
2021/08/30 01:03:00.014,n,87,2.88,1.8,3.24,17.2,71.9,1016.12,0,0,0,0,0.028725
2021/08/30 01:04:00.000,n,93,2.52,2.16,2.88,17.1,72.1,1016.12,0,0,0,0,0.028725
2021/08/30 01:05:00.000,n,98,2.88,2.88,3.24,17.1,72.3,1016.02,0,0,0,0,0.030479
2021/08/30 01:06:00.000,n,84,1.8,1.44,2.16,17.1,72.2,1016.02,0,0,0,0,0.027847
2021/08/30 01:07:00.003,n,113,2.88,2.16,3.24,17,72.6,1016.02,0,0,0,0,0.02697
2021/08/30 01:08:00.000,n,109,6.84,6.12,6.84,17.1,72.9,1016.02,0,0,0,0,0.026131
2021/08/30 01:09:00.000,n,87,4.68,3.96,6.48,17.1,72.4,1016.02,0,0,0,0,0.023499
2021/08/30 01:10:00.010,n,130,1.44,0,2.16,17.1,72.2,1016.02,0,0,0,0,0.021782
2021/08/30 01:11:00.007,n,343,2.52,2.16,2.88,17.1,72.1,1016.02,0,0,0,0,0.022621
2021/08/30 01:12:00.005,n,32,2.16,1.8,2.88,17.1,72.6,1016.12,0,0,0,0,0.018272
2021/08/30 01:13:00.000,n,148,0.72,0,1.44,17.2,72.2,1016.12,0,0,0,0,0.018272
2021/08/30 01:14:00.000,n,58,6.12,5.4,6.84,17.2,72.1,1016.12,0,0,0,0,0.019989
2021/08/30 01:15:00.000,n,44,3.6,3.24,4.32,17.3,72.1,1016.12,0,0,0,0,0.02964
2021/08/30 01:16:00.000,n,93,3.96,3.6,4.32,17.3,72,1016.12,0,0,0,0,0.031357
2021/08/30 01:17:00.005,n,78,1.08,0.72,1.08,17.3,71.8,1016.12,0,0,0,0,0.030479
2021/08/30 01:18:00.002,n,142,1.08,0.72,1.08,17.3,71.8,1016.12,0,0,0,0,0.034866
2021/08/30 01:19:00.000,n,66,2.16,1.44,2.52,17.3,71.9,1016.12,0,0,0,0,0.026131
2021/08/30 01:20:00.012,n,253,1.44,0.72,2.52,17.2,72.2,1016.12,0,0,0,0,0.027885
2021/08/30 01:21:00.009,n,350,2.52,2.16,2.88,17.3,72.3,1016.12,0,0,0,0,0.032272
2021/08/30 01:22:00.000,n,264,1.8,1.44,2.16,17.3,72,1016.12,0,0,0,0,0.030479
2021/08/30 01:23:00.002,n,20,5.04,4.68,5.4,17.3,72.6,1016.12,0,0,0,0,0.032272
2021/08/30 01:24:00.000,n,39,6.84,6.48,7.2,17.3,71.9,1016.12,0,0,0,0,0.032272
2021/08/30 01:25:00.000,n,31,4.32,3.6,4.68,17.3,71.6,1016.12,0,0,0,0,0.030479
2021/08/30 01:26:00.000,n,42,3.24,2.52,3.6,17.3,71.6,1016.12,0,0,0,0,0.027885
2021/08/30 01:27:00.006,n,352,4.68,4.32,5.04,17.3,71.6,1016.12,0,0,0,0,0.027008
2021/08/30 01:28:00.004,n,4,5.04,4.68,5.04,17.4,71.4,1016.12,0,0,0,0,0.027885
2021/08/30 01:29:00.001,n,357,3.6,3.6,3.96,17.4,71.4,1016.12,0,0,0,0,0.026131
2021/08/30 01:30:00.016,n,357,5.76,5.4,6.48,17.4,71.3,1016.12,0,0,0,0,0.025291
2021/08/30 01:31:00.000,n,29,5.76,5.76,6.48,17.4,71.3,1016.12,0,0,0,0,0.025291
2021/08/30 01:32:00.000,n,337,3.96,3.6,3.96,17.5,70.8,1016.12,0,0,0,0,0.024414
2021/08/30 01:33:00.000,n,280,4.68,3.24,5.76,17.5,70.8,1016.12,0,0,0,0,0.031357
2021/08/30 01:34:00.005,n,305,2.16,1.8,2.52,17.5,70.8,1016.12,0,0,0,0,0.027885
2021/08/30 01:35:00.002,n,251,2.88,2.16,2.88,17.5,70.5,1016.12,0,0,0,0,0.030479
2021/08/30 01:36:00.000,n,271,3.96,3.24,4.68,17.5,70.9,1016.12,0,0,0,0,0.024414
2021/08/30 01:37:00.000,n,29,1.8,1.08,2.16,17.5,70.8,1016.12,0,0,0,0,0.023537
2021/08/30 01:38:00.009,n,5,2.88,2.16,3.6,17.5,70.6,1016.12,0,0,0,0,0.023537
2021/08/30 01:39:00.007,n,344,3.6,2.88,3.96,17.5,70.1,1016.12,0,0,0,0,0.023537
2021/08/30 01:40:00.000,n,263,7.92,6.84,9,17.5,69.7,1016.12,0,0,0,0,0.022659
2021/08/30 01:41:00.000,n,248,2.16,2.16,2.52,17.5,70.1,1016.12,0,0,0,0,0.021782
2021/08/30 01:42:00.000,n,76,1.8,1.44,1.8,17.4,70.8,1016.12,0,0,0,0,0.020905
2021/08/30 01:43:00.000,n,266,3.24,3.24,3.6,17.4,70.5,1016.12,0,0,0,0,0.020905
2021/08/30 01:44:00.008,n,253,4.68,3.96,5.04,17.4,70.4,1016.12,0,0,0,0,0.020065
2021/08/30 01:45:00.006,n,236,2.52,2.16,3.24,17.3,70.6,1016.12,0,0,0,0,0.025291
2021/08/30 01:46:00.002,n,221,1.44,0.36,2.16,17.2,70.9,1016.12,0,0,0,0,0.02964
2021/08/30 01:47:00.000,n,47,2.88,2.16,3.6,17.2,70.9,1016.12,0,0,0,0,0.025291
2021/08/30 01:48:00.013,n,102,1.08,0.72,1.44,17.1,70.7,1016.02,0,0,0,0,0.020905
2021/08/30 01:49:00.000,n,262,3.96,2.88,5.04,17,71.2,1016.12,0,0,0,0,0.024414
2021/08/30 01:50:00.000,n,209,1.44,0.72,2.16,16.9,71.6,1016.12,0,0,0,0,0.027885
2021/08/30 01:51:00.004,n,334,1.44,1.08,2.16,16.9,71.8,1016.12,0,0,0,0,0.021782
2021/08/30 01:52:00.001,n,262,1.44,0.72,1.8,16.8,72,1016.12,0,0,0,0,0.020905
2021/08/30 01:53:00.000,n,102,1.44,1.08,1.44,16.8,72.2,1016.02,0,0,0,0,0.024414
2021/08/30 01:54:00.000,n,258,3.24,3.24,3.24,16.8,72.4,1016.12,0,0,0,0,0.024414
2021/08/30 01:55:00.009,n,238,6.48,6.12,6.48,16.700002,72.7,1016.12,0,0,0,0,0.031357
2021/08/30 01:56:00.002,n,250,3.6,3.24,4.32,16.700002,72.8,1016.12,0,0,0,0,0.029602
2021/08/30 01:57:00.015,n,311,1.44,1.08,2.16,16.700002,72.6,1016.12,0,0,0,0,0.033073
2021/08/30 01:58:00.000,n,56,2.52,2.16,2.88,16.700002,72.9,1016.12,0,0,0,0,0.034828
2021/08/30 01:59:00.000,n,128,2.52,2.16,2.88,16.700002,72.8,1016.12,0,0,0,0,0.030479
2021/08/30 02:00:00.000,n,183,4.68,4.32,5.04,16.700002,73,1016.02,0,0,0,0,0.028725
2021/08/30 02:01:00.004,n,172,3.96,3.6,4.32,16.700002,73.2,1016.12,0,0,0,0,0.031357
2021/08/30 02:02:00.000,n,167,2.88,2.52,3.24,16.700002,72.7,1016.02,0,0,0,0,0.030479
2021/08/30 02:03:00.000,n,113,3.24,2.88,3.6,16.700002,72.8,1016.02,0,0,0,0,0.027008
2021/08/30 02:04:00.011,n,155,0.72,0.36,1.08,16.700002,72,1016.02,0,0,0,0,0.027885
2021/08/30 02:05:00.008,n,161,5.4,5.04,6.12,16.700002,73.1,1016.12,0,0,0,0,0.027885
2021/08/30 02:06:00.005,n,169,6.12,6.12,6.12,16.6,74,1016.02,0,0,0,0,0.025253
2021/08/30 02:07:00.000,n,161,6.48,5.76,7.2,16.5,74.7,1016.12,0,0,0,0,0.025253
2021/08/30 02:08:00.000,n,156,5.76,5.76,6.48,16.5,74.8,1016.12,0,0,0,0,0.031357
2021/08/30 02:09:00.000,n,145,5.04,4.68,5.4,16.4,75,1016.12,0,0,0,0,0.023499
2021/08/30 02:10:00.000,n,119,2.16,1.8,2.52,16.4,74.9,1016.12,0,0,0,0,0.027008
2021/08/30 02:11:00.007,n,135,5.4,4.32,6.12,16.4,75.1,1016.12,0,0,0,0,0.021744
2021/08/30 02:12:00.004,n,138,4.68,3.96,5.04,16.5,74.8,1016.12,0,0,0,0,0.022659
2021/08/30 02:13:00.000,n,179,5.04,4.68,5.4,16.5,74.4,1016.12,0,0,0,0,0.023537
2021/08/30 02:14:00.010,n,176,4.32,3.96,4.68,16.6,74.3,1016.12,0,0,0,0,0.030479
2021/08/30 02:15:00.007,n,150,5.4,5.04,5.76,16.6,74.1,1016.12,0,0,0,0,0.032234
2021/08/30 02:16:00.000,n,124,6.12,6.12,6.48,16.6,73.9,1016.12,0,0,0,0,0.027885
2021/08/30 02:17:00.002,n,117,3.96,3.6,4.32,16.8,73,1016.12,0,0,0,0,0.027008
2021/08/30 02:18:00.000,n,143,3.6,3.24,3.96,16.9,72,1016.12,0,0,0,0,0.027008
2021/08/30 02:19:00.000,n,154,6.48,6.12,6.84,17,71.9,1016.12,0,0,0,0,0.030479
2021/08/30 02:20:00.000,n,151,4.68,4.32,5.04,17.1,71.5,1016.12,0,0,0,0,0.027885
2021/08/30 02:21:00.006,n,171,4.32,3.96,4.68,17.1,71.4,1016.12,0,0,0,0,0.030479
2021/08/30 02:22:00.005,n,196,3.24,3.24,3.6,17.1,71.3,1016.22,0,0,0,0,0.033112
2021/08/30 02:23:00.002,n,201,3.24,2.52,3.6,17.1,71.2,1016.22,0,0,0,0,0.025253
2021/08/30 02:24:00.016,n,172,3.96,3.6,4.32,17.1,70.9,1016.22,0,0,0,0,0.027885
2021/08/30 02:25:00.000,n,137,4.32,3.6,4.68,17.2,70.4,1016.22,0,0,0,0,0.024414
2021/08/30 02:26:00.000,n,132,4.68,4.32,5.04,17.4,69.7,1016.22,0,0,0,0,0.026131
2021/08/30 02:27:00.000,n,101,4.68,4.32,5.04,17.5,68.9,1016.22,0,0,0,0,0.025253
2021/08/30 02:28:00.005,n,82,3.24,3.24,3.6,17.7,67.9,1016.22,0,0,0,0,0.02964
2021/08/30 02:29:00.002,n,102,2.52,2.16,2.52,17.7,67.8,1016.22,0,0,0,0,0.025253
2021/08/30 02:30:00.000,n,141,2.88,2.52,3.24,17.8,67.5,1016.22,0,0,0,0,0.024414
2021/08/30 02:31:00.000,n,150,6.12,5.76,6.48,17.8,67.6,1016.22,0,0,0,0,0.023537
2021/08/30 02:32:00.010,n,130,5.76,5.04,6.48,17.7,67.8,1016.22,0,0,0,0,0.027885
2021/08/30 02:33:00.007,n,147,4.32,3.6,5.04,17.7,67.8,1016.22,0,0,0,0,0.028763
2021/08/30 02:34:00.000,n,155,2.16,1.8,2.16,17.7,67.7,1016.22,0,0,0,0,0.022659
2021/08/30 02:35:00.000,n,153,2.88,2.52,3.24,17.7,67.7,1016.22,0,0,0,0,0.026131
2021/08/30 02:36:00.000,n,149,5.4,5.04,5.76,17.7,67.7,1016.22,0,0,0,0,0.027008
2021/08/30 02:37:00.000,n,144,6.12,5.76,6.48,17.7,67.5,1016.22,0,0,0,0,0.024414
2021/08/30 02:38:00.008,n,147,6.48,6.12,6.84,17.7,66.800004,1016.22,0,0,0,0,0.021782
2021/08/30 02:39:00.007,n,149,5.4,5.04,5.76,17.8,66.300004,1016.22,0,0,0,0,0.026131
2021/08/30 02:40:00.003,n,148,4.32,3.96,4.68,17.9,65.199996,1016.22,0,0,0,0,0.023537
2021/08/30 02:41:00.000,n,137,3.24,2.88,3.6,17.9,65.9,1016.22,0,0,0,0,0.024414
2021/08/30 02:42:00.014,n,121,2.88,2.88,3.24,18,66.199996,1016.22,0,0,0,0,0.020065
2021/08/30 02:43:00.000,n,125,3.24,2.88,3.6,17.9,65.9,1016.22,0,0,0,0,0.027008
2021/08/30 02:44:00.000,n,147,4.32,3.96,4.68,17.9,66,1016.22,0,0,0,0,0.024414
2021/08/30 02:45:00.000,n,128,4.32,3.96,4.68,17.9,66.1,1016.22,0,0,0,0,0.024414
2021/08/30 02:46:00.002,n,121,4.68,4.68,5.04,17.8,66.199996,1016.22,0,0,0,0,0.025253
2021/08/30 02:47:00.000,n,162,2.88,2.16,3.24,17.7,66.4,1016.22,0,0,0,0,0.028763
2021/08/30 02:48:00.000,n,172,3.96,3.96,4.32,17.6,66.9,1016.22,0,0,0,0,0.027008
2021/08/30 02:49:00.010,n,150,4.68,4.32,5.04,17.5,67.4,1016.32,0,0,0,0,0.027008
2021/08/30 02:50:00.006,n,150,4.32,3.96,4.68,17.5,67.6,1016.32,0,0,0,0,0.026131
2021/08/30 02:51:00.004,n,136,4.32,4.32,4.68,17.4,67.7,1016.32,0,0,0,0,0.028763
2021/08/30 02:52:00.002,n,151,6.12,6.12,6.48,17.4,67.9,1016.32,0,0,0,0,0.023537
2021/08/30 02:53:00.000,n,151,4.68,4.32,5.04,17.3,67.8,1016.32,0,0,0,0,0.028763
2021/08/30 02:54:00.000,n,155,6.84,6.48,7.2,17.3,67.9,1016.32,0,0,0,0,0.023537
2021/08/30 02:55:00.000,n,153,6.84,6.84,7.2,17.3,67.8,1016.32,0,0,0,0,0.02964
2021/08/30 02:56:00.006,n,157,6.12,5.4,6.84,17.3,68,1016.32,0,0,0,0,0.023537
2021/08/30 02:57:00.005,n,151,6.84,6.48,7.2,17.3,68,1016.32,0,0,0,0,0.027885
2021/08/30 02:58:00.000,n,158,7.2,6.84,7.56,17.3,68,1016.32,0,0,0,0,0.023537
2021/08/30 02:59:00.013,n,164,5.04,4.68,5.76,17.3,67.9,1016.32,0,0,0,0,0.022659
2021/08/30 03:00:00.010,n,157,4.68,4.68,5.04,17.3,67.9,1016.32,0,0,0,0,0.021782
2021/08/30 03:01:00.000,n,163,5.04,4.68,5.04,17.3,68,1016.42,0,0,0,0,0.028763
2021/08/30 03:02:00.000,n,188,3.24,2.88,3.6,17.3,67.7,1016.42,0,0,0,0,0.027885
2021/08/30 03:03:00.000,n,173,3.24,2.52,3.6,17.2,67.4,1016.42,0,0,0,0,0.023537
2021/08/30 03:04:00.000,n,210,2.88,2.52,3.24,17.2,66.9,1016.52,0,0,0,0,0.028763
2021/08/30 03:05:00.000,n,182,5.04,3.96,5.76,17.2,65.6,1016.52,0,0,0,0,0.024414
2021/08/30 03:06:00.007,n,183,1.8,1.44,2.52,17.3,65.699996,1016.52,0,0,0,0,0.028763
2021/08/30 03:07:00.004,n,196,3.24,2.52,4.32,17.4,64,1016.52,0,0,0,0,0.025253
2021/08/30 03:08:00.001,n,192,2.16,1.44,2.16,17.5,63.9,1016.52,0,0,0,0,0.023537
2021/08/30 03:09:00.015,n,170,1.8,1.44,1.8,17.6,63.4,1016.52,0,0,0,0,0.026131
2021/08/30 03:10:00.000,n,148,5.4,4.68,5.76,17.7,63.1,1016.52,0,0,0,0,0.023537
2021/08/30 03:11:00.000,n,238,1.08,1.08,1.08,17.8,63.5,1016.52,0,0,0,0,0.022659
2021/08/30 03:12:00.000,n,214,1.8,1.44,1.8,17.8,63.2,1016.52,0,0,0,0,0.024414
2021/08/30 03:13:00.000,n,240,2.88,2.88,3.24,17.7,63.4,1016.52,0,0,0,0,0.023537
2021/08/30 03:14:00.003,n,200,4.32,4.32,5.04,17.7,63,1016.52,0,0,0,0,0.021782
2021/08/30 03:15:00.000,n,227,4.68,3.96,6.12,17.7,61.8,1016.62,0,0,0,0,0.019188
2021/08/30 03:16:00.000,n,262,1.44,1.08,2.52,17.8,62.6,1016.62,0,0,0,0,0.028763
2021/08/30 03:17:00.010,n,263,2.16,1.8,2.52,17.8,62.9,1016.62,0,0,0,0,0.026131
2021/08/30 03:18:00.008,n,238,2.16,1.8,2.16,17.8,62.1,1016.62,0,0,0,0,0.022659
2021/08/30 03:19:00.000,n,202,3.6,3.6,3.96,17.8,62.6,1016.62,0,0,0,0,0.025253
2021/08/30 03:20:00.002,n,286,0.36,0,0.72,17.7,62.7,1016.62,0,0,0,0,0.027008
2021/08/30 03:21:00.000,n,260,1.44,1.44,1.8,17.7,62.8,1016.62,0,0,0,0,0.028763
2021/08/30 03:22:00.000,n,211,1.44,0.72,1.8,17.7,63.2,1016.62,0,0,0,0,0.021782
2021/08/30 03:23:00.000,n,233,2.16,0.72,3.24,17.6,62.5,1016.62,0,0,0,0,0.022659
2021/08/30 03:24:00.007,n,253,2.88,2.52,3.24,17.6,63,1016.62,0,0,0,0,0.024414
2021/08/30 03:25:00.004,n,275,4.68,3.96,4.68,17.6,62.6,1016.62,0,0,0,0,0.025253
2021/08/30 03:26:00.001,n,241,2.88,2.88,3.24,17.6,62.6,1016.62,0,0,0,0,0.02964
2021/08/30 03:27:00.015,n,234,1.8,1.8,1.8,17.6,62.6,1016.62,0,0,0,0,0.024414
2021/08/30 03:28:00.000,n,277,2.52,1.8,3.24,17.5,62.8,1016.62,0,0,0,0,0.025253
2021/08/30 03:29:00.000,n,258,2.52,2.16,2.52,17.5,62.8,1016.72,0,0,0,0,0.023537
2021/08/30 03:30:00.000,n,250,3.24,3.24,3.6,17.5,63,1016.72,0,0,0,0,0.027885
2021/08/30 03:31:00.003,n,254,2.88,2.52,2.88,17.5,63.1,1016.72,0,0,0,0,0.022659
2021/08/30 03:32:00.000,n,259,2.88,2.52,3.24,17.4,63.2,1016.82,0,0,0,0,0.022659
2021/08/30 03:33:00.000,n,265,1.8,1.8,2.16,17.4,63.2,1016.82,0,0,0,0,0.022659
2021/08/30 03:34:00.010,n,269,2.52,2.16,2.88,17.4,63.2,1016.82,0,0,0,0,0.024414
2021/08/30 03:35:00.007,n,255,2.52,2.52,2.52,17.4,63.2,1016.82,0,0,0,0,0.024414
2021/08/30 03:36:00.004,n,212,1.44,1.44,1.44,17.3,63.3,1016.82,0,0,0,0,0.026131
2021/08/30 03:37:00.002,n,226,1.44,1.44,1.8,17.3,63.5,1016.82,0,0,0,0,0.026131
2021/08/30 03:38:00.000,n,71,0,0,0.36,17.3,63.5,1016.72,0,0,0,0,0.024414
2021/08/30 03:39:00.000,n,193,0.36,0,0.72,17.2,63.7,1016.72,0,0,0,0,0.026131
2021/08/30 03:40:00.000,n,96,1.44,1.08,1.44,17.2,64.300004,1016.72,0,0,0,0,0.027885
2021/08/30 03:41:00.006,n,67,1.44,1.08,1.44,17.1,64.4,1016.72,0,0,0,0,0.022659
2021/08/30 03:42:00.004,n,34,1.08,0.72,1.08,17,65,1016.72,0,0,0,0,0.021782
2021/08/30 03:43:00.001,n,8,1.44,0.72,2.16,17,65.199996,1016.72,0,0,0,0,0.022659
2021/08/30 03:44:00.014,n,322,0.36,0.36,0.72,16.9,65.6,1016.72,0,0,0,0,0.024414
2021/08/30 03:45:00.011,n,280,3.96,3.24,4.32,16.8,65.800004,1016.82,0,0,0,0,0.021782
2021/08/30 03:46:00.000,n,282,3.24,3.24,3.6,16.8,65.6,1016.82,0,0,0,0,0.020905
2021/08/30 03:47:00.000,n,277,4.32,4.32,4.68,16.8,65.6,1016.82,0,0,0,0,0.020065
2021/08/30 03:48:00.002,n,291,5.4,4.32,6.12,16.8,66.699996,1016.82,0,0,0,0,0.026093
2021/08/30 03:49:00.000,n,284,4.32,3.96,4.32,16.9,65.4,1016.72,0,0,0,0,0.033073
2021/08/30 03:50:00.000,n,286,3.24,3.24,3.96,16.9,64.6,1016.72,0,0,0,0,0.030479
2021/08/30 03:51:00.009,n,265,1.8,1.8,2.16,17,64.300004,1016.72,0,0,0,0,0.032196
2021/08/30 03:52:00.006,n,332,2.16,1.8,2.52,17,64.699996,1016.72,0,0,0,0,0.028725
2021/08/30 03:53:00.003,n,284,1.44,1.44,1.8,17,64.6,1016.72,0,0,0,0,0.027847
2021/08/30 03:54:00.016,n,354,1.8,1.8,2.16,16.9,64.800004,1016.72,0,0,0,0,0.032196
2021/08/30 03:55:00.000,n,351,2.88,2.88,3.24,16.9,64.6,1016.72,0,0,0,0,0.02697
2021/08/30 03:56:00.000,n,344,3.6,3.6,3.96,16.9,64.800004,1016.72,0,0,0,0,0.027847
2021/08/30 03:57:00.000,n,322,0.72,0.72,1.08,17,64.4,1016.72,0,0,0,0,0.025253
2021/08/30 03:58:00.005,n,260,1.44,1.08,1.44,17,64.4,1016.72,0,0,0,0,0.02697
2021/08/30 03:59:00.003,n,285,2.88,2.52,3.24,16.9,64.300004,1016.72,0,0,0,0,0.025253
2021/08/30 04:00:00.000,n,30,4.68,4.68,5.04,16.9,64.5,1016.72,0,0,0,0,0.024376
2021/08/30 04:01:00.000,n,271,2.52,2.16,3.24,16.9,65.1,1016.72,0,0,0,0,0.02697
2021/08/30 04:02:00.012,n,261,5.76,5.76,6.12,16.8,65.199996,1016.82,0,0,0,0,0.027847
2021/08/30 04:03:00.009,n,332,3.6,2.52,4.68,16.700002,65.5,1016.72,0,0,0,0,0.027847
2021/08/30 04:04:00.000,n,275,6.84,6.48,6.84,16.8,65.300004,1016.72,0,0,0,0,0.02697
2021/08/30 04:05:00.003,n,270,7.92,6.84,9,16.9,63.2,1016.72,0,0,0,0,0.023499
2021/08/30 04:06:00.000,n,271,6.48,6.12,7.56,17,62,1016.72,0,0,0,0,0.024376
2021/08/30 04:07:00.000,n,255,7.2,6.12,7.92,17.1,61.6,1016.72,0,0,0,0,0.026093
2021/08/30 04:08:00.000,n,218,3.96,3.6,4.32,17.1,61.7,1016.72,0,0,0,0,0.025253
2021/08/30 04:09:00.008,n,244,4.32,3.6,5.04,17.2,62.1,1016.72,0,0,0,0,0.025253
2021/08/30 04:10:00.004,n,266,5.4,5.04,6.12,17.2,61.7,1016.72,0,0,0,0,0.027847
2021/08/30 04:11:00.002,n,272,5.04,3.96,6.12,17.2,61.4,1016.72,0,0,0,0,0.025253
2021/08/30 04:12:00.016,n,265,3.6,3.24,4.32,17.2,61.4,1016.82,0,0,0,0,0.023499
2021/08/30 04:13:00.000,n,210,1.8,1.08,1.8,17.2,61.9,1016.82,0,0,0,0,0.020905
2021/08/30 04:14:00.000,n,261,2.52,2.16,2.88,17.1,61.8,1016.82,0,0,0,0,0.020905
2021/08/30 04:15:00.000,n,278,5.4,4.32,5.4,17.1,61.8,1016.82,0,0,0,0,0.021744
2021/08/30 04:16:00.004,n,281,5.4,5.04,5.76,17.1,63.1,1016.82,0,0,0,0,0.022621
2021/08/30 04:17:00.002,n,250,5.4,5.04,5.76,17.1,61.5,1016.82,0,0,0,0,0.020905
2021/08/30 04:18:00.000,n,256,2.16,1.8,2.52,17,61.7,1016.92,0,0,0,0,0.023499
2021/08/30 04:19:00.011,n,254,3.96,3.6,4.32,17,62,1016.92,0,0,0,0,0.025253
2021/08/30 04:20:00.008,n,287,4.32,3.96,4.32,16.9,61.6,1016.92,0,0,0,0,0.025253
2021/08/30 04:21:00.005,n,311,1.08,0.72,1.8,16.9,61.9,1016.92,0,0,0,0,0.020027
2021/08/30 04:22:00.000,n,49,1.08,1.08,1.44,16.9,63.8,1016.92,0,0,0,0,0.018272
2021/08/30 04:23:00.000,n,281,3.6,1.8,4.68,16.8,63.5,1016.92,0,0,0,0,0.020905
2021/08/30 04:24:00.000,n,263,2.52,1.44,3.24,16.700002,63,1016.92,0,0,0,0,0.020027
2021/08/30 04:25:00.000,n,278,6.48,5.04,7.92,16.6,61.4,1017.02,0,0,0,0,0.01915
2021/08/30 04:26:00.007,n,32,2.52,1.08,3.6,16.6,64.800004,1017.02,0,0,0,0,0.020027
2021/08/30 04:27:00.004,n,44,2.16,1.08,2.88,16.4,67.4,1017.02,0,0,0,0,0.020905
2021/08/30 04:28:00.001,n,40,2.52,0.36,4.32,16.200002,68.3,1017.02,0,0,0,0,0.020905
2021/08/30 04:29:00.000,n,33,2.16,1.8,2.52,16,69.2,1017.02,0,0,0,0,0.01915
2021/08/30 04:30:00.011,n,28,2.16,1.8,2.52,15.9,71.3,1017.02,0,0,0,0,0.018272
2021/08/30 04:31:00.000,n,24,3.24,2.52,3.6,15.8,72.5,1017.02,0,0,0,0,0.018272
2021/08/30 04:32:00.000,n,290,1.08,0.72,1.08,15.7,72.6,1017.12,0,0,0,0,0.020905
2021/08/30 04:33:00.002,n,8,2.52,2.52,2.88,15.6,72.9,1017.02,0,0,0,0,0.020027
2021/08/30 04:34:00.000,n,341,4.32,3.6,5.04,15.5,70.6,1017.02,0,0,0,0,0.027885
2021/08/30 04:35:00.008,n,279,1.44,1.08,2.52,15.4,70.7,1017.12,0,0,0,0,0.029602
2021/08/30 04:36:00.006,n,327,1.44,1.08,1.8,15.4,68.4,1017.12,0,0,0,0,0.027885
2021/08/30 04:37:00.004,n,265,1.44,1.08,1.8,15.5,68.2,1017.12,0,0,0,0,0.027885
2021/08/30 04:38:00.001,n,314,1.44,1.08,1.8,15.5,68.1,1017.12,0,0,0,0,0.026131
2021/08/30 04:39:00.014,n,10,1.44,1.08,1.44,15.6,68.6,1017.12,0,0,0,0,0.026131
2021/08/30 04:40:00.000,n,222,1.08,0.72,1.08,15.7,67.5,1017.12,0,0,0,0,0.024414
2021/08/30 04:41:00.000,n,34,1.44,1.08,1.44,15.7,66.6,1017.12,0,0,0,0,0.028763
2021/08/30 04:42:00.005,n,29,1.8,1.44,1.8,15.8,64.300004,1017.12,0,0,0,0,0.027885
2021/08/30 04:43:00.002,n,60,2.16,1.44,2.52,16,66.4,1017.12,0,0,0,0,0.027008
2021/08/30 04:44:00.000,n,138,0.72,0.36,0.72,16.1,66.800004,1017.22,0,0,0,0,0.025253
2021/08/30 04:45:00.000,n,244,1.8,1.44,2.52,16.1,66.699996,1017.22,0,0,0,0,0.021782
2021/08/30 04:46:00.010,n,150,0.72,0.72,0.72,16,65.800004,1017.22,0,0,0,0,0.021782
2021/08/30 04:47:00.007,n,176,3.24,2.52,3.96,16,66,1017.22,0,0,0,0,0.027885
2021/08/30 04:48:00.004,n,224,2.52,2.52,2.88,16,65.1,1017.22,0,0,0,0,0.033951
2021/08/30 04:49:00.002,n,188,2.16,2.16,2.52,16,63.8,1017.22,0,0,0,0,0.028763
2021/08/30 04:50:00.000,n,192,3.24,2.88,3.24,16.1,63.8,1017.32,0,0,0,0,0.030479
2021/08/30 04:51:00.000,n,199,4.68,3.96,5.4,16.200002,62.7,1017.32,0,0,0,0,0.030479
2021/08/30 04:52:00.000,n,192,5.76,5.4,6.48,16.3,62.2,1017.32,0,0,0,0,0.030479
2021/08/30 04:53:00.007,n,181,6.12,5.76,6.12,16.4,61.3,1017.32,0,0,0,0,0.026131